Location: Mascot Post Office (historical)
(40.2645°N, 99.5462°W)
Time: 16:44:44
(UTC+00:00)

Cosmos 1900 - Pass Details

Date: 14 July 2020
Orbit: 682 x 740 km, 66.1° (Epoch: 05 August)

Event Time Altitude Azimuth Distance (km) Brightness Sun altitude
Exits shadow 09:05:45 44° 227° (SW) 963 4.5 -19.9°
Maximum altitude 09:07:16 75° 301° (WNW) 727 4.3 -19.8°
Drops below altitude 10° 09:12:15 10° 27° (NNE) 2,185 8.1 -19.2°
Sets 09:14:38 0° 29° (NNE) 3,118 9.3 -18.9°
